Naples, Italy

3:45 PM CEST on September 22, 2017 (GMT +0200)
Capodichino Mil

Weather History for LIRN - February, 2013

Change the Weather History Date:

Saturday, February 23, 2013

  Actual Average Record
Temperature  
Mean Temperature 52 °F -  
Max Temperature 60 °F 58 °F 64 °F (2008)
Min Temperature 44 °F 42 °F 32 °F (2005)
Degree Days  
Heating Degree Days 13    
Growing Degree Days 2 (Base 50)    
Moisture  
Dew Point 48 °F    
Average Humidity 78    
Maximum Humidity 94    
Minimum Humidity 55    
Precipitation  
Precipitation 0.00 in 0.12 in - ()
Sea Level Pressure  
Sea Level Pressure 29.59 in    
Wind  
Wind Speed 8 mph ()    
Max Wind Speed 18 mph    
Max Gust Speed 36 mph    
Visibility 5.6 miles    
Events Rain , Thunderstorm    
Averages and records for this station are not official NWS values.
T = Trace of Precipitation, MM = Missing Value Source: Averaged Metar Reports

Daily Weather History Graph

Daily Weather History Graph

Search for Another Location

Airport or City:

Trip Planner

Search our weather history database for the weather conditions in past years. The results will help you decide how hot, cold, wet, or windy it might be!

Date:

Astronomy

Feb. 23, 2013 Rise Set
Actual Time 6:45 AM CET 5:47 PM CET
Civil Twilight 6:18 AM CET 6:14 PM CET
Nautical Twilight 5:46 AM CET 6:46 PM CET
Astronomical Twilight 5:14 AM CET 7:18 PM CET
Moon 3:39 PM CET (2/23) 4:58 AM CET (2/23)
Length of Visible Light 11h 56m
Length of Day
11h 01m
Waxing Gibbous, 94% of the Moon is Illuminated
Feb 23
Waxing Gibbous
Feb 25
Full
Mar 4
Last Quarter
Mar 11
New
Mar 19
First Quarter

Hourly Weather History & Observations

Time (CET) Temp. Windchill Dew Point Humidity Pressure Visibility Wind Dir Wind Speed Gust Speed Precip Events Conditions
12:20 AM 55.4 °F - 51.8 °F 88% 29.53 in 5.0 mi WSW 10.4 mph - N/A   Scattered Clouds
12:50 AM 55.4 °F - 51.8 °F 88% 29.53 in 5.0 mi West 9.2 mph - N/A   Mostly Cloudy
1:20 AM 53.6 °F - 50.0 °F 88% 29.56 in 3.7 mi West 11.5 mph - N/A   Drizzle
1:50 AM 53.6 °F - 51.8 °F 94% 29.56 in 3.7 mi West 8.1 mph - N/A   Drizzle
2:20 AM 53.6 °F - 50.0 °F 88% 29.56 in 5.0 mi West 6.9 mph - N/A   Mostly Cloudy
2:50 AM 53.6 °F - 48.2 °F 82% 29.56 in 5.0 mi WNW 5.8 mph - N/A   Mostly Cloudy
3:20 AM 51.8 °F - 48.2 °F 88% 29.56 in 5.0 mi West 6.9 mph - N/A   Scattered Clouds
3:50 AM 51.8 °F - 46.4 °F 82% 29.59 in 5.0 mi South 4.6 mph - N/A   Scattered Clouds
4:20 AM 51.8 °F - 44.6 °F 76% 29.59 in 5.0 mi SW 5.8 mph - N/A   Unknown
4:50 AM 51.8 °F - 44.6 °F 76% 29.59 in 5.0 mi SW 6.9 mph - N/A   Unknown
5:20 AM 44.6 °F 42.2 °F 41.0 °F 87% 29.59 in 5.0 mi WSW 4.6 mph - N/A   Unknown
5:50 AM 48.2 °F - 42.8 °F 82% 29.62 in - Variable 2.3 mph - N/A   Clear
6:20 AM 46.4 °F - 42.8 °F 87% 29.62 in - South 2.3 mph - N/A   Clear
6:50 AM 46.4 °F - 42.8 °F 87% 29.62 in - South 1.2 mph - N/A   Clear
7:20 AM 48.2 °F - 44.6 °F 87% 29.62 in - Variable 2.3 mph - N/A   Clear
7:50 AM 50.0 °F - 44.6 °F 82% 29.65 in - Variable 1.2 mph - N/A   Clear
8:20 AM 51.8 °F - 46.4 °F 82% 29.65 in 6.2 mi Variable 2.3 mph - N/A   Mostly Cloudy
9:20 AM 55.4 °F - 46.4 °F 72% 29.62 in 6.2 mi SSE 8.1 mph - N/A   Mostly Cloudy
9:50 AM 55.4 °F - 46.4 °F 72% 29.65 in 6.2 mi South 9.2 mph - N/A   Mostly Cloudy
10:20 AM 57.2 °F - 46.4 °F 67% 29.65 in 6.2 mi South 8.1 mph - N/A   Mostly Cloudy
10:50 AM 57.2 °F - 46.4 °F 67% 29.65 in 6.2 mi South 8.1 mph - N/A   Mostly Cloudy
11:20 AM 57.2 °F - 48.2 °F 72% 29.65 in 6.2 mi South 9.2 mph - N/A Rain Light Rain
11:50 AM 57.2 °F - 48.2 °F 72% 29.62 in 6.2 mi SSE 10.4 mph - N/A Rain Light Rain
12:20 PM 59.0 °F - 50.0 °F 72% 29.59 in 6.2 mi SSE 11.5 mph 26.5 mph N/A   Mostly Cloudy
12:50 PM 59.0 °F - 48.2 °F 67% 29.59 in 6.2 mi South 6.9 mph - N/A   Light Drizzle
1:20 PM 59.0 °F - 48.2 °F 67% 29.56 in 6.2 mi SSE 5.8 mph - N/A   Mostly Cloudy
1:50 PM 59.0 °F - 48.2 °F 67% 29.56 in 6.2 mi SSW 5.8 mph - N/A Rain Light Rain
2:20 PM 59.0 °F - 48.2 °F 67% 29.53 in 6.2 mi SSE 11.5 mph - N/A Rain Light Rain
2:50 PM 59.0 °F - 46.4 °F 63% 29.53 in 6.2 mi SSE 11.5 mph - N/A   Mostly Cloudy
3:20 PM 59.0 °F - 46.4 °F 63% 29.50 in 6.2 mi SSE 11.5 mph 25.3 mph N/A   Mostly Cloudy
3:50 PM 60.8 °F - 48.2 °F 63% 29.50 in 6.2 mi South 11.5 mph - N/A   Mostly Cloudy
4:20 PM 60.8 °F - 44.6 °F 55% 29.50 in 6.2 mi South 17.3 mph 31.1 mph N/A   Mostly Cloudy
4:50 PM 60.8 °F - 44.6 °F 55% 29.47 in 6.2 mi South 15.0 mph 32.2 mph N/A   Mostly Cloudy
5:20 PM 59.0 °F - 50.0 °F 72% 29.50 in 3.1 mi South 18.4 mph 35.7 mph N/A Rain Heavy Rain
5:50 PM 53.6 °F - 50.0 °F 88% 29.53 in 4.3 mi SW 13.8 mph 25.3 mph N/A Rain , Thunderstorm Thunderstorms and Rain
6:20 PM 53.6 °F - 51.8 °F 94% 29.56 in 4.3 mi SSW 11.5 mph - N/A Rain , Thunderstorm Thunderstorms and Rain
6:50 PM 55.4 °F - 51.8 °F 88% 29.59 in 6.2 mi SSW 12.7 mph - N/A Rain Light Rain
7:20 PM 55.4 °F - 51.8 °F 88% 29.59 in 6.2 mi SSW 9.2 mph - N/A   Scattered Clouds
7:50 PM 55.4 °F - 50.0 °F 82% 29.59 in 6.2 mi South 9.2 mph - N/A   Scattered Clouds
8:20 PM 55.4 °F - 50.0 °F 82% 29.59 in 6.2 mi South 11.5 mph - N/A   Scattered Clouds
8:50 PM 57.2 °F - 50.0 °F 77% 29.62 in 6.2 mi South 11.5 mph - N/A   Mostly Cloudy
9:20 PM 57.2 °F - 51.8 °F 82% 29.62 in 6.2 mi South 15.0 mph - N/A   Mostly Cloudy
9:50 PM 57.2 °F - 51.8 °F 82% 29.62 in 6.2 mi South 13.8 mph 25.3 mph N/A   Mostly Cloudy
10:20 PM 57.2 °F - 51.8 °F 82% 29.62 in 6.2 mi South 13.8 mph - N/A   Mostly Cloudy
10:50 PM 57.2 °F - 51.8 °F 82% 29.62 in 6.2 mi South 12.7 mph - N/A   Mostly Cloudy
11:20 PM 55.4 °F - 48.2 °F 77% 29.65 in 6.2 mi SSW 12.7 mph 25.3 mph N/A   Mostly Cloudy
11:50 PM 55.4 °F - 48.2 °F 77% 29.65 in 5.0 mi SSW 11.5 mph - N/A Rain Light Rain